Location: Staunton
(38.1490°N, 79.0720°W)
Time: 20:50:00
(UTC-04:00)

ISS - Pass Details

Date: 18 September 2018
Orbit: 403 x 408 km, 51.6° (Epoch: 25 September)

Event Time Altitude Azimuth Distance (km) Brightness Sun altitude
Exits shadow 05:49:41 31° 243° (WSW) 728 -3.1 -14.6°
Maximum altitude 05:50:05 33° 226° (SW) 707 -3.1 -14.5°
Drops below altitude 10° 05:53:02 10° 161° (SSE) 1,447 -1.0 -14.0°
Sets 05:55:13 0° 151° (SSE) 2,301 0.2 -13.5°
